Regional Weather Roundup
Issued by NWS

Home | Current Version | Previous Version | Graphics & Text | Print | Product List | Glossary On
Versions: 1 2 3 4 5 6 7 8 9 10 11 12 13 14 15 16 17 18 19 20 21 22 23 24 25 26 27 28 29 30 31 32 33 34 35 36 37 38 39 40 41 42 43 44 45 46 47 48 49 50
000
ASUS43 KBIS 210810
RWRND

NORTH DAKOTA REGIONAL WEATHER ROUNDUP
NATIONAL WEATHER SERVICE BISMARCK ND
200 AM CST SUN JAN 21 2018

NOTE: "FAIR" INDICATES FEW OR NO CLOUDS BELOW 12,000 FEET WITH NO
SIGNIFICANT WEATHER AND/OR OBSTRUCTIONS TO VISIBILITY.


NDZ001>003-009>011-017-210900-
NORTHWEST NORTH DAKOTA

CITY           SKY/WX    TMP DP  RH WIND       PRES   REMARKS
WILLISTON      CLEAR     11   9  92 CALM      29.97S
MINOT          CLEAR     21  17  84 SW8       29.95S WCI  11
MINOT AFB      CLEAR     16  13  87 W7        29.95R WCI   7
$$

NDZ018>021-031>035-040>046-210900-
SOUTHWEST NORTH DAKOTA

CITY           SKY/WX    TMP DP  RH WIND       PRES   REMARKS
BISMARCK       PTCLDY    22  19  89 W5        29.99S WCI  16
DICKINSON      PTCLDY    20  16  84 W8        29.95R WCI  10
GARRISON         N/A     16  14  92 CALM      29.96S
HETTINGER ARPT CLOUDY    23  18  81 NW3       29.97F
$$

NDZ004>008-012>016-024-026-027-054-210900-
NORTHEAST NORTH DAKOTA

CITY           SKY/WX    TMP DP  RH WIND       PRES   REMARKS
GRAND FORKS    FAIR      20  18  92 W8        29.97R WCI  10
GRND FRKS AFB  FAIR      23  19  85 NW7       29.96R WCI  15
DEVILS LAKE    FAIR      16  14  92 NW5       29.97R WCI   9
$$

NDZ022-023-025-028>030-036>039-047>053-210900-
SOUTHEAST NORTH DAKOTA

CITY           SKY/WX    TMP DP  RH WIND       PRES   REMARKS
FARGO          FAIR      28  25  88 SW5       29.97R
JAMESTOWN      CLOUDY    25  21  85 NW9       29.95S WCI  15
$$




USA.gov is the U.S. government's official web portal to all federal, state and local government web resources and services.